Temperature
-1 -1 -1 -1 -2 -2 -2 -2 -2 -3 -3 -3 -3 -3 -3 -3 -3 -3 -3 -4 -4 -4 -4 -4 -4 -4 -4 -4 -4 -4 -4 -5 -5 -4 -4 -3 -3 -3 -3 -3 -3 -3 -2
-1 -1 -2 -2 -2 -2 -2 -3 -3 -3 -3 -4 -4 -4 -4 -4 -4 -4 -4 -4 -4 -4 -5 -5 -5 -5 -5 -5 -5 -5 -5 -5 -5 -5 -4 -4 -4 -4 -4 -4 -3 -3 -3
-2 -2 -2 -2 -3 -3 -3 -3 -4 -4 -4 -4 -4 -4 -4 -5 -5 -5 -5 -5 -5 -5 -5 -5 -5 -5 -5 -5 -5 -5 -5 -5 -5 -6 -5 -5 -5 -5 -5 -4 -4 -4 -4
-2 -3 -3 -3 -3 -3 -4 -4 -4 -4 -4 -5 -5 -5 -5 -5 -5 -5 -6 -6 -6 -6 -6 -6 -6 -6 -6 -6 -6 -6 -6 -6 -6 -6 -6 -6 -6 -6 -6 -5 -5 -5 -4
-3 -3 -3 -3 -4 -4 -4 -4 -5 -5 -5 -5 -5 -6 -6 -6 -6 -6 -7 -7 -7 -7 -7 -7 -7 -7 -7 -7 -7 -7 -6 -6 -6 -6 -6 -6 -6 -6 -6 -6 -6 -6 -5
-4 -4 -4 -4 -4 -5 -5 -5 -5 -5 -6 -6 -6 -6 -6 -6 -6 -7 -7 -7 -7 -7 -7 -7 -7 -7 -7 -7 -7 -7 -7 -7 -7 -7 -7 -7 -7 -7 -7 -7 -7 -7 -6
-4 -4 -5 -5 -5 -5 -5 -6 -6 -6 -6 -6 -6 -7 -7 -7 -7 -7 -8 -8 -8 -8 -8 -8 -8 -8 -8 -8 -8 -7 -7 -7 -7 -7 -7 -7 -7 -7 -7 -7 -7 -7 -7
-5 -5 -5 -6 -6 -6 -6 -6 -6 -7 -7 -7 -7 -7 -7 -7 -8 -8 -8 -8 -8 -8 -8 -8 -8 -8 -8 -8 -8 -8 -8 -8 -8 -8 -8 -8 -7 -7 -7 -7 -7 -7 -7
-5 -6 -6 -6 -6 -6 -7 -7 -7 -7 -7 -8 -8 -8 -8 -8 -8 -8 -8 -9 -9 -9 -8 -9 -9 -9 -9 -9 -9 -9 -8 -8 -8 -8 -8 -8 -8 -8 -8 -8 -8 -8 -8
-6 -6 -7 -7 -7 -7 -7 -7 -8 -8 -8 -8 -8 -8 -8 -8 -9 -9 -9 -9 -9 -9 -9 -9 -9 -9 -9 -9 -9 -9 -9 -9 -9 -8 -8 -8 -8 -8 -8 -8 -8 -9 -9
-7 -7 -7 -7 -8 -8 -8 -8 -8 -8 -9 -9 -9 -9 -9 -9 -9 -9 -9 -9 -10 -10 -10 -10 -10 -10 -10 -10 -10 -10 -10 -10 -9 -9 -9 -9 -9 -9 -9 -9 -9 -9 -9
-7 -8 -8 -8 -8 -8 -9 -9 -9 -9 -9 -9 -9 -9 -9 -10 -10 -10 -10 -10 -10 -10 -10 -10 -10 -10 -10 -10 -10 -10 -10 -10 -10 -10 -10 -9 -9 -9 -9 -9 -9 -9 -9
-8 -8 -8 -9 -9 -9 -9 -9 -9 -10 -10 -10 -10 -10 -10 -10 -10 -10 -11 -11 -11 -11 -11 -11 -11 -11 -11 -11 -11 -11 -11 -11 -11 -11 -11 -10 -10 -10 -10 -10 -9 -9 -9
-8 -8 -9 -9 -9 -9 -10 -10 -10 -10 -10 -11 -11 -11 -11 -11 -11 -11 -11 -11 -11 -11 -11 -11 -11 -11 -11 -11 -11 -11 -11 -11 -12 -11 -11 -11 -11 -11 -10 -10 -10 -10 -10
-9 -9 -9 -10 -10 -10 -10 -10 -10 -11 -11 -11 -11 -11 -12 -11 -11 -12 -12 -12 -12 -12 -12 -12 -12 -12 -12 -12 -12 -12 -12 -12 -12 -12 -12 -12 -12 -11 -11 -11 -11 -11 -11
-9 -10 -10 -10 -10 -10 -10 -11 -11 -11 -11 -11 -12 -12 -12 -12 -12 -12 -12 -12 -12 -12 -12 -12 -12 -13 -13 -13 -13 -13 -13 -13 -13 -13 -13 -12 -12 -12 -12 -12 -11 -11 -11
-10 -10 -10 -11 -11 -11 -11 -11 -11 -11 -11 -12 -12 -12 -12 -12 -12 -13 -13 -13 -13 -13 -13 -13 -13 -13 -13 -13 -13 -13 -13 -13 -13 -13 -13 -13 -13 -13 -12 -12 -12 -12 -12
-11 -11 -11 -11 -11 -11 -12 -12 -12 -12 -12 -12 -12 -12 -12 -13 -13 -13 -13 -13 -13 -13 -13 -13 -13 -13 -13 -13 -13 -13 -13 -13 -13 -13 -13 -13 -13 -13 -13 -13 -12 -12 -12
-11 -11 -11 -12 -12 -12 -12 -12 -12 -12 -12 -12 -12 -12 -13 -13 -13 -13 -13 -13 -13 -13 -13 -13 -14 -14 -14 -14 -14 -14 -14 -14 -14 -13 -13 -13 -13 -13 -13 -13 -13 -13 -13
-12 -12 -12 -12 -12 -12 -12 -13 -13 -13 -13 -13 -13 -13 -13 -13 -13 -13 -13 -14 -14 -14 -14 -14 -14 -14 -14 -14 -14 -14 -14 -14 -14 -14 -14 -14 -14 -13 -13 -13 -13 -13 -13
-12 -13 -13 -13 -13 -13 -13 -13 -13 -13 -13 -13 -13 -13 -14 -14 -14 -14 -14 -14 -14 -14 -14 -14 -14 -14 -14 -14 -14 -14 -14 -14 -14 -14 -14 -14 -14 -14 -13 -13 -13 -13 -13
-13 -13 -13 -13 -13 -13 -13 -14 -14 -14 -14 -14 -14 -14 -14 -14 -14 -14 -14 -14 -14 -14 -14 -14 -14 -14 -14 -14 -14 -14 -14 -14 -14 -14 -14 -14 -14 -14 -14 -13 -13 -13 -13
-14 -14 -14 -14 -14 -14 -14 -14 -14 -14 -14 -14 -14 -14 -14 -14 -14 -14 -14 -14 -14 -14 -15 -15 -15 -14 -14 -14 -14 -14 -14 -14 -14 -14 -14 -14 -14 -14 -14 -14 -13 -13 -13
-14 -14 -14 -14 -14 -14 -14 -14 -14 -15 -15 -15 -15 -15 -15 -15 -15 -15 -15 -15 -15 -15 -15 -15 -15 -15 -14 -14 -14 -14 -14 -14 -14 -14 -14 -14 -14 -14 -14 -14 -13 -13 -13
-15 -15 -15 -15 -15 -15 -15 -15 -15 -15 -15 -15 -15 -15 -15 -15 -15 -15 -15 -15 -15 -15 -15 -15 -15 -14 -14 -14 -14 -14 -14 -14 -14 -14 -14 -14 -14 -14 -14 -14 -14 -13 -13
-15 -15 -15 -15 -15 -15 -15 -15 -15 -15 -15 -15 -15 -15 -15 -15 -15 -15 -15 -15 -15 -15 -15 -15 -15 -14 -14 -14 -14 -14 -14 -14 -14 -14 -14 -14 -14 -14 -14 -14 -14 -14 -13
Wind_Speed
5 4 4 3 3 3 2 2 1 1 0 1 1 1 2 2 2 1 2 2 2 2 3 3 4 4 4 4 4 4 5 5 8 7 5 5 6 7 10 11 11 11 12
4 4 4 3 3 3 2 2 1 1 1 1 1 1 2 2 2 2 3 3 3 3 4 4 5 4 5 4 4 5 6 6 7 9 7 5 6 6 8 8 10 10 11
4 4 4 3 3 3 2 2 1 1 1 1 1 2 2 3 3 3 3 3 3 4 4 5 5 5 6 5 5 6 6 6 6 7 8 6 5 6 6 7 8 9 11
3 4 4 3 3 3 2 2 1 1 1 1 2 3 3 3 4 4 4 4 4 5 5 5 5 5 6 6 6 7 7 7 6 6 7 6 6 5 5 6 7 6 7
3 3 3 2 2 2 2 1 1 1 1 1 2 3 3 3 4 4 4 4 5 5 5 6 6 8 9 8 7 6 6 6 6 6 7 7 6 5 6 6 8 8 7
3 2 2 2 2 1 1 1 0 1 1 1 2 3 4 4 7 8 6 4 4 5 6 6 7 8 10 12 13 13 11 8 7 7 7 8 8 7 7 7 8 9 8
2 2 2 2 1 1 1 0 1 1 2 2 3 3 4 6 9 9 9 5 4 4 5 5 6 7 9 7 11 13 12 14 13 9 9 9 9 8 8 9 9 9 10
2 1 1 1 1 0 0 0 1 1 2 2 3 4 4 6 9 10 10 5 4 5 5 5 6 6 8 9 8 8 8 9 11 9 8 9 9 9 9 10 10 9 9
2 1 0 1 1 0 0 1 1 1 2 2 3 3 4 6 9 10 10 4 4 5 6 6 6 6 12 13 9 8 9 9 12 14 14 14 15 15 12 7 7 7 9
0 0 0 1 0 0 1 1 1 1 2 3 4 4 4 6 9 10 10 4 5 5 5 6 9 10 13 14 8 7 9 9 9 9 9 10 10 11 13 8 7 8 8
0 1 1 1 0 0 1 1 1 2 2 3 4 4 4 6 8 10 11 5 5 6 6 5 6 13 14 15 12 7 10 10 7 6 6 7 6 6 7 7 7 7 8
1 1 1 1 1 1 1 2 2 1 2 3 4 5 4 5 7 9 11 11 10 6 6 6 7 14 15 15 11 12 15 12 6 6 6 6 6 6 6 8 9 10 10
2 1 1 1 1 2 1 2 2 2 2 3 3 4 5 5 6 10 11 12 12 8 7 11 13 14 13 10 12 14 11 6 5 6 7 7 6 7 7 7 8 9 10
1 0 1 1 2 2 2 2 2 2 3 4 4 4 5 5 5 5 5 7 10 9 7 9 12 12 10 10 9 8 5 5 6 6 7 7 6 6 7 6 7 6 7
0 1 1 1 2 2 2 2 3 3 4 5 4 4 5 5 8 12 9 6 5 6 6 4 4 5 5 5 5 5 5 5 6 5 6 7 7 7 7 6 6 6 6
1 1 1 2 2 2 3 4 5 6 8 9 9 8 7 9 14 14 14 14 14 12 7 4 5 5 6 6 6 6 6 6 6 6 6 7 7 7 7 6 6 6 6
2 2 2 2 2 3 3 3 5 6 8 9 10 11 11 12 13 14 14 13 12 10 5 5 5 6 6 6 6 6 7 6 6 6 6 7 7 7 7 7 7 6 7
2 3 3 2 3 3 3 3 4 5 6 6 8 11 12 13 13 13 13 10 7 6 4 5 6 6 6 6 6 6 7 6 6 6 6 6 6 7 7 7 7 7 7
2 2 3 3 3 3 3 3 4 4 5 6 6 7 11 12 12 12 10 5 5 6 6 6 6 6 6 7 7 7 7 7 7 7 7 7 6 6 7 7 7 11 9
3 5 4 3 3 3 3 3 4 4 5 5 6 6 6 7 5 6 5 5 5 6 6 6 6 6 7 7 7 7 7 7 7 7 7 7 7 7 8 8 8 8 8
3 4 6 4 3 3 3 4 4 5 5 6 6 8 10 6 6 6 6 6 6 6 6 6 7 7 7 7 7 7 8 8 7 7 7 7 7 7 7 7 8 8 8
3 3 3 3 3 4 4 4 4 5 6 7 7 8 12 7 6 6 6 7 6 6 7 7 7 7 7 7 7 8 8 8 8 7 7 7 7 7 7 7 8 8 8
3 3 4 4 4 6 6 4 5 5 6 7 7 7 7 6 6 7 7 7 7 7 8 8 8 8 10 10 10 9 9 9 9 8 8 8 8 8 8 8 9 9 8
3 4 4 4 4 4 5 5 5 6 7 7 7 7 7 7 7 8 8 7 8 8 9 9 10 11 13 13 12 12 12 13 13 12 11 9 9 9 8 8 9 10 9
3 4 4 4 5 5 5 6 6 7 7 7 7 7 7 7 8 8 7 8 9 9 10 11 11 12 14 15 14 14 16 18 16 13 11 9 10 10 10 10 9 9 8
4 4 4 4 5 5 6 6 7 7 7 7 7 7 7 8 8 8 8 8 8 9 10 11 12 14 15 15 16 17 18 18 17 17 13 9 8 9 9 8 9 8 8
Wind_Direction
165 160 154 153 148 142 156 171 178 213 241 276 284 292 300 305 306 306 304 300 298 304 300 294 292 286 277 266 263 260 258 254 265 276 278 281 278 282 294 293 293 290 287
167 158 159 152 149 156 169 176 182 208 253 269 275 283 288 293 292 285 287 294 283 286 290 290 291 293 285 278 268 261 259 255 258 272 281 277 273 272 278 283 292 289 287
157 155 156 157 165 177 183 182 190 212 266 287 292 280 285 289 285 278 270 273 268 269 274 276 280 285 287 283 277 271 266 267 259 264 277 276 273 272 276 282 284 284 286
150 158 169 179 185 189 184 182 199 218 236 265 285 283 284 287 285 277 274 272 270 271 273 273 274 272 276 280 281 274 271 269 262 261 273 276 273 269 267 280 288 282 287
152 161 179 179 173 170 170 179 207 254 271 275 284 291 289 283 277 276 272 274 273 279 280 278 281 283 283 284 284 282 280 273 271 266 271 280 279 281 278 279 284 288 282
149 162 157 147 153 167 181 177 213 272 284 283 278 282 289 292 295 295 294 283 280 282 287 289 289 290 290 293 294 293 291 286 283 277 273 272 276 277 279 281 282 286 285
133 133 137 142 153 181 192 165 254 274 285 286 285 283 285 290 299 299 298 297 285 282 284 290 296 298 302 298 294 295 295 290 284 280 277 272 272 272 274 276 273 275 277
110 103 120 130 136 168 169 223 275 280 285 287 291 289 291 297 306 307 306 302 287 279 277 278 281 288 289 292 290 291 287 286 281 277 269 270 269 266 263 268 272 277 277
99 93 81 135 149 185 249 278 287 295 299 294 295 293 297 302 310 309 309 298 289 283 281 281 284 281 290 296 295 291 293 292 292 284 281 284 286 288 288 284 280 279 283
93 73 42 60 114 241 259 280 301 295 290 300 305 302 293 294 306 311 308 294 289 291 288 286 289 292 296 297 292 287 290 292 294 297 295 294 291 289 287 275 267 271 278
85 61 51 41 7 285 321 325 317 312 313 305 303 303 296 297 306 311 311 306 293 293 292 292 291 297 299 299 299 293 292 299 298 296 294 292 290 282 279 275 266 261 265
80 66 40 15 357 5 358 327 325 315 315 308 306 307 301 300 307 308 309 308 304 296 293 292 291 298 300 302 304 302 304 308 306 300 294 292 293 288 283 283 280 274 266
85 60 14 2 356 348 325 310 319 315 301 300 299 298 302 303 305 311 309 308 308 303 294 295 299 304 308 308 307 309 312 313 306 300 296 294 291 289 289 286 285 283 280
98 15 348 345 335 331 316 300 292 287 286 288 288 292 298 301 299 300 296 302 305 303 300 303 308 309 309 310 311 311 306 298 297 292 295 297 298 294 290 286 286 288 288
80 308 317 312 300 305 302 281 279 262 266 284 280 283 293 294 301 309 311 305 301 294 310 313 312 311 308 305 304 302 301 301 298 293 294 297 298 296 294 293 285 283 278
274 293 291 288 291 293 295 303 301 298 302 302 302 301 301 301 307 310 311 310 311 311 311 303 299 295 294 296 297 298 296 294 294 293 292 292 294 295 296 295 289 285 284
252 273 278 284 286 290 293 299 308 315 313 311 311 312 310 311 314 315 314 315 318 320 309 297 293 290 289 290 290 290 291 291 291 288 288 289 291 291 292 292 290 286 284
271 278 285 271 273 279 282 286 291 300 309 310 313 312 313 313 315 318 318 319 317 317 298 293 292 292 290 289 289 289 290 291 290 288 286 286 286 287 289 287 285 284 285
287 278 276 272 275 277 281 284 285 287 291 297 305 311 313 312 311 313 319 312 299 297 294 291 289 289 289 287 286 285 284 285 285 286 285 281 281 282 280 280 281 285 286
293 294 298 285 280 282 282 282 284 286 289 292 295 299 307 309 304 306 304 294 290 289 289 289 289 287 287 286 285 284 284 284 284 281 282 281 279 277 278 277 276 279 279
297 296 303 299 283 278 277 277 280 283 287 290 289 294 304 301 296 294 293 290 286 285 286 286 286 286 285 285 284 282 281 282 281 280 281 282 279 277 277 277 276 274 276
300 294 289 282 284 283 284 282 282 283 286 289 292 298 305 304 296 292 291 291 289 284 282 283 283 281 280 280 281 281 280 279 279 278 279 281 280 277 277 277 278 278 277
303 298 295 292 288 293 298 293 289 287 287 287 291 294 297 295 293 292 291 292 291 289 288 285 283 283 282 279 275 273 273 274 274 274 277 280 279 276 274 274 276 277 275
307 300 294 293 293 291 291 292 290 289 289 289 289 290 291 291 291 291 291 291 291 289 287 285 282 282 284 284 282 277 274 275 275 271 266 268 273 275 273 271 272 272 272
300 294 289 288 290 290 290 291 291 291 291 291 292 293 293 293 292 292 292 291 291 290 288 287 285 285 285 284 284 284 285 288 289 282 270 265 267 269 270 269 270 273 272
298 292 288 287 287 288 288 289 289 291 291 291 290 290 291 291 291 292 292 293 293 292 292 290 288 287 288 289 289 292 295 295 295 293 286 274 270 271 271 269 270 271 274
Height
1494 1496 1497 1499 1500 1501 1501 1502 1502 1502 1502 1501 1501 1500 1500 1499 1499 1498 1497 1497 1495 1495 1494 1494 1493 1493 1492 1491 1490 1489 1489 1487 1484 1481 1482 1482 1482 1481 1481 1480 1479 1478 1477
1491 1493 1494 1496 1497 1498 1498 1499 1499 1499 1499 1498 1498 1497 1496 1496 1495 1494 1493 1492 1491 1491 1490 1489 1489 1488 1487 1486 1485 1484 1483 1482 1480 1477 1476 1476 1476 1476 1475 1474 1473 1472 1471
1489 1490 1491 1493 1494 1494 1495 1495 1495 1495 1495 1495 1494 1493 1493 1492 1491 1490 1489 1488 1487 1487 1486 1485 1484 1483 1482 1482 1480 1479 1478 1477 1475 1473 1470 1471 1470 1470 1469 1468 1467 1466 1465
1486 1487 1488 1489 1490 1491 1492 1492 1492 1492 1492 1491 1491 1490 1489 1488 1487 1486 1485 1484 1483 1483 1482 1481 1480 1479 1478 1477 1475 1474 1473 1472 1470 1468 1466 1465 1465 1464 1464 1462 1460 1460 1459
1483 1484 1485 1486 1487 1488 1488 1488 1489 1489 1488 1488 1487 1486 1485 1484 1483 1482 1481 1480 1479 1478 1477 1477 1475 1474 1473 1472 1471 1470 1468 1467 1465 1463 1461 1460 1459 1459 1458 1456 1455 1453 1451
1480 1481 1482 1483 1484 1484 1485 1485 1485 1485 1485 1484 1483 1482 1481 1480 1480 1479 1478 1477 1475 1474 1473 1472 1471 1469 1468 1467 1466 1465 1464 1462 1460 1458 1456 1455 1453 1453 1452 1451 1449 1447 1444
1478 1479 1479 1480 1481 1481 1481 1481 1481 1481 1481 1480 1479 1479 1478 1477 1476 1475 1474 1473 1471 1470 1468 1467 1466 1465 1464 1462 1460 1459 1457 1456 1455 1453 1451 1449 1448 1447 1447 1445 1444 1442 1439
1476 1477 1477 1478 1478 1478 1478 1478 1478 1478 1477 1476 1475 1475 1474 1473 1472 1471 1470 1468 1467 1465 1464 1463 1461 1460 1458 1457 1454 1452 1450 1449 1448 1447 1445 1444 1443 1442 1441 1440 1437 1435 1433
1474 1474 1475 1475 1475 1475 1475 1475 1475 1474 1473 1473 1472 1471 1470 1469 1468 1467 1465 1464 1462 1461 1460 1458 1456 1455 1453 1452 1449 1447 1444 1443 1442 1440 1439 1438 1437 1436 1435 1434 1431 1429 1425
1471 1472 1472 1472 1472 1472 1472 1471 1471 1471 1470 1469 1468 1467 1466 1465 1464 1462 1461 1459 1457 1456 1454 1453 1452 1450 1448 1446 1444 1442 1439 1437 1435 1433 1432 1431 1430 1429 1428 1427 1425 1423 1420
1470 1470 1470 1470 1470 1469 1469 1468 1468 1467 1467 1466 1464 1463 1462 1461 1459 1458 1457 1455 1453 1451 1449 1448 1446 1444 1443 1441 1439 1437 1434 1432 1430 1427 1425 1424 1423 1422 1421 1420 1418 1417 1414
1467 1467 1467 1467 1467 1467 1466 1465 1465 1464 1463 1462 1460 1459 1458 1457 1455 1453 1452 1451 1450 1447 1445 1443 1441 1439 1438 1436 1434 1431 1429 1427 1424 1421 1419 1417 1416 1415 1414 1412 1411 1410 1408
1465 1465 1465 1465 1465 1464 1463 1462 1462 1461 1459 1458 1457 1455 1454 1452 1451 1450 1448 1446 1445 1443 1440 1438 1437 1435 1432 1430 1428 1425 1423 1421 1418 1416 1413 1412 1410 1409 1407 1405 1404 1402 1401
1463 1463 1463 1462 1462 1461 1461 1460 1459 1457 1456 1455 1453 1451 1450 1448 1447 1445 1443 1442 1440 1438 1436 1433 1431 1429 1427 1424 1422 1420 1418 1415 1413 1411 1408 1406 1405 1403 1401 1399 1397 1395 1393
1461 1461 1460 1460 1459 1459 1458 1457 1456 1454 1453 1452 1450 1448 1446 1444 1443 1442 1440 1437 1435 1433 1431 1428 1425 1423 1421 1419 1417 1415 1413 1411 1408 1406 1404 1402 1399 1397 1395 1393 1391 1389 1387
1459 1458 1458 1457 1457 1456 1455 1454 1452 1451 1450 1448 1447 1445 1442 1441 1439 1437 1435 1433 1431 1429 1426 1423 1420 1418 1416 1414 1411 1409 1408 1406 1404 1402 1399 1397 1395 1392 1390 1388 1386 1384 1382
1457 1456 1455 1455 1454 1453 1451 1450 1448 1447 1446 1444 1442 1440 1438 1436 1434 1432 1430 1428 1426 1424 1421 1418 1416 1414 1412 1409 1407 1405 1403 1401 1399 1397 1395 1392 1390 1387 1385 1383 1381 1379 1377
1454 1453 1453 1452 1451 1449 1448 1447 1445 1443 1441 1439 1438 1436 1434 1432 1430 1427 1425 1423 1420 1418 1416 1414 1412 1410 1407 1405 1403 1400 1398 1396 1394 1391 1389 1387 1385 1382 1380 1378 1376 1374 1372
1451 1450 1450 1448 1447 1446 1445 1443 1441 1439 1437 1435 1433 1431 1429 1427 1425 1423 1421 1418 1415 1413 1411 1409 1407 1405 1403 1400 1398 1395 1393 1390 1388 1386 1384 1381 1379 1377 1375 1373 1371 1369 1367
1448 1448 1447 1445 1444 1443 1441 1439 1437 1435 1433 1431 1429 1427 1424 1422 1420 1418 1416 1413 1411 1409 1407 1404 1402 1400 1398 1395 1393 1390 1388 1385 1383 1380 1378 1376 1374 1372 1370 1368 1366 1364 1362
1445 1444 1443 1442 1440 1439 1437 1435 1433 1431 1429 1427 1425 1423 1421 1418 1416 1413 1411 1409 1406 1404 1402 1399 1397 1395 1393 1390 1388 1385 1382 1380 1377 1375 1373 1370 1368 1366 1364 1362 1360 1358 1356
1442 1441 1440 1438 1437 1435 1433 1432 1430 1428 1425 1423 1421 1419 1417 1414 1411 1409 1406 1404 1402 1399 1397 1395 1392 1390 1387 1385 1382 1380 1377 1374 1372 1370 1367 1365 1363 1360 1358 1356 1354 1352 1350
1439 1437 1436 1435 1433 1431 1430 1428 1426 1424 1421 1419 1417 1414 1412 1410 1407 1404 1402 1399 1397 1394 1392 1390 1387 1384 1382 1380 1377 1375 1372 1369 1366 1364 1361 1359 1357 1355 1353 1351 1348 1346 1344
1435 1434 1432 1431 1429 1427 1426 1424 1422 1420 1417 1415 1413 1410 1408 1405 1402 1400 1397 1394 1392 1389 1387 1384 1382 1379 1377 1374 1372 1369 1367 1364 1361 1359 1356 1354 1352 1349 1347 1345 1343 1341 1339
1432 1430 1428 1427 1425 1423 1422 1420 1418 1415 1413 1411 1408 1406 1403 1400 1397 1395 1392 1389 1387 1384 1382 1379 1377 1374 1372 1369 1366 1364 1361 1359 1356 1354 1351 1349 1346 1344 1342 1340 1338 1336 1334
1428 1426 1425 1423 1421 1419 1417 1415 1413 1411 1408 1406 1404 1401 1398 1395 1392 1390 1387 1384 1382 1379 1376 1374 1371 1369 1366 1363 1361 1358 1356 1353 1351 1349 1346 1344 1342 1339 1337 1335 1333 1331 1330